Home   Weather   Khanty-Mansiysk   Past weeks

Flag for Russia Past Weather in Khanty-Mansiysk, Russia — Yesterday and Last 2 Weeks

Now
-27 °F

Scattered clouds.


Feels Like: -39 °F
Forecast: 0 / 22 °F
Wind: 3 mph from Southeast

Location: Hanty-Mansijsk

Current Time: Dec 10, 2016 at 10:04:14 am

Latest Report: Dec 10, 2016 at 9:30 am


Visibility: N/A

Pressure: 29.59 "Hg

Humidity: 74%

Dew Point: -33 °F

Location of Khanty-MansiyskLocation

Past Weather in Khanty-Mansiysk — Graph

°F

Khanty-Mansiysk Temperature Yesterday

Maximum temperature yesterday: -17 °F (at 12:00 am)
Minimum temperature yesterday: -29 °F (at 11:00 pm)
Average temperature yesterday: -24 °F

High & Low Weather Summary for the Past Weeks

 TemperatureHumidityPressure
High25 °F (Nov 25, 9:00 am)93% (Nov 25, 9:00 am)30.36 "Hg (Nov 25, 9:00 am)
Low-33 °F (Dec 10, 4:00 am)67% (Dec 9, 8:00 pm)29.24 "Hg (Dec 4, 10:00 pm)
Average-6 °F80%29.73 "Hg
* Reported Nov 25 9:00 am — Dec 10 9:00 am, Khanty-Mansiysk, Weather by CustomWeather, © 2016

Note: Actual official high and low records may vary slightly from our data, if they occured in-between our weather recording intervals... More about our weather records

Advertising

Khanty-Mansiysk Weather History for the Previous 24 Hours

Scroll right to see more
 ConditionsComfort  
Time TempWeatherWind HumidityBarometerVisibility
9:00 am
Sat, Dec 10
-27 °FPassing clouds.6 mph67%29.59 "HgN/A
8:30 am-29 °FPassing clouds.6 mph74%29.59 "HgN/A
8:00 am-29 °FClear.3 mph74%29.59 "Hg10 mi
7:30 am-29 °FPassing clouds.1 mph67%29.59 "Hg6 mi
7:00 am-31 °FPassing clouds.3 mph74%29.59 "HgN/A
6:30 am-31 °FPassing clouds.6 mph74%29.59 "HgN/A
6:00 am-31 °FPassing clouds.3 mph67%29.59 "HgN/A
5:30 am-33 °FPassing clouds.3 mph74%29.59 "HgN/A
5:00 am-31 °FPassing clouds.3 mph67%29.59 "HgN/A
4:30 am-31 °FPassing clouds.3 mph67%29.59 "HgN/A
4:00 am-33 °FPassing clouds.3 mph74%29.59 "HgN/A
3:30 am-31 °FPassing clouds.3 mph67%29.59 "HgN/A
3:00 am-31 °FPassing clouds.1 mph67%29.59 "HgN/A
2:30 am-31 °FPassing clouds.1 mph67%29.59 "Hg5 mi
2:00 am-31 °FPassing clouds.1 mph67%29.56 "Hg2 mi
1:30 am-31 °FClear.1 mph74%29.56 "Hg1 mi
1:00 am-29 °FSnow. Passing clouds.1 mph67%29.56 "Hg1 mi
12:30 am-29 °FPassing clouds.No wind67%29.56 "Hg1 mi
12:00 am-29 °FLight snow. Passing clouds.No wind67%29.56 "Hg1 mi
11:30 pm
Fri, Dec 9
-29 °FPassing clouds.No wind74%29.56 "Hg3 mi
11:00 pm-29 °FPassing clouds.No wind74%29.59 "Hg6 mi
10:30 pm-27 °FPassing clouds.No wind67%29.56 "HgN/A
10:00 pm-27 °FPassing clouds.No wind67%29.56 "HgN/A
9:30 pm-27 °FClear.1 mph67%29.56 "Hg10 mi
9:00 pm-27 °FClear.3 mph74%29.56 "Hg10 mi
8:30 pm-27 °FClear.1 mph74%29.53 "Hg10 mi
8:00 pm-26 °FPassing clouds.1 mph67%29.53 "HgN/A
7:30 pm-26 °FLight snow. Passing clouds.1 mph75%29.53 "HgN/A
7:00 pm-26 °FLight snow. Passing clouds.1 mph75%29.53 "Hg6 mi
6:30 pm-26 °FLight snow. Passing clouds.1 mph75%29.53 "Hg6 mi
6:00 pm-26 °FPassing clouds.No wind75%29.53 "HgN/A
5:30 pm-26 °FPassing clouds.No wind75%29.53 "HgN/A
5:00 pm-26 °FLight snow. Passing clouds.No wind75%29.53 "HgN/A
4:30 pm-26 °FPassing clouds.No wind75%29.53 "HgN/A
4:00 pm-26 °FClear.1 mph75%29.53 "Hg10 mi
3:30 pm-24 °FPassing clouds.No wind68%29.53 "HgN/A
3:00 pm-24 °FPassing clouds.1 mph75%29.53 "HgN/A
2:30 pm-22 °FPassing clouds.No wind68%29.50 "HgN/A
2:00 pm-22 °FPassing clouds.1 mph68%29.50 "HgN/A
1:30 pm-22 °FPassing clouds.No wind68%29.50 "HgN/A
1:00 pm-22 °FScattered clouds.1 mph68%29.50 "HgN/A
12:30 pm-22 °FScattered clouds.No wind68%29.50 "HgN/A
12:00 pm-22 °FScattered clouds.1 mph68%29.50 "HgN/A
11:30 am-22 °FScattered clouds.1 mph68%29.50 "HgN/A
11:00 am-22 °FScattered clouds.1 mph68%29.50 "HgN/A
10:30 am-24 °FScattered clouds.No wind75%29.53 "HgN/A
10:00 am-24 °FLight snow. Scattered clouds.1 mph75%29.53 "HgN/A
Weather by CustomWeather, © 2016

See weather overviewHow to use our weather pages